User: anonymous   Login
Location: Unspecified
(0.0000°N, 0.0000°E)
Time: 02:08:51
(UTC+00:00)
Language:

STARLINK-30845 - Orbit

View from above orbital plane
View from above orbital plane
View from above satellite
View from above satellite

Ground track
Ground track

The orbit is defined by the following mean orbital elements,

1 58207U          26145.46801205 +.00000000 +00000-0 +13635-2 0 00009
2 58207  42.9984 137.4826 0001229 292.3295  67.7418 15.05858157    05
Epoch (UTC): 25 May 2026 11:13:56
Eccentricity: 0.0001229
inclination: 42.9984°
perigee height: 548 km
apogee height: 550 km
right ascension of ascending node: 137.4826°
argument of perigee: 292.3295°
revolutions per day: 15.05858157
mean anomaly at epoch: 67.7418°

The dashed part of the orbit path shows where the satellite is in the earth's shadow,  

DLR